[[{"header":{"parameterUnit":"m.s-1","parameterCategory":1,"la1":30.2991,"la2":30.254,"lo1":-89.0895,"lo2":-89.0444,"dy":0.0017,"dx":0.0017,"nx":28,"ny":28,"refTime":"2025-08-04T21:00:00:Z","depth":0,"parameterNumber":2,"parameterNumberName":"U-component_of_WINDS"},"data":[0,0,0,0,0,0,0,0,0,0,0,0,0,0,0,0,0,0,0,0,0,0,0,0,0,0,0,0,0,0,0,0,0,0,0,0,0,0,0,0,0,0,0,0,0,0,0,0,0,0,0,0,0,0,0,0,0,0,-1.0442,-1.0441,0,-1.0357,-1.0356,-1.0355,-1.0283,-1.0282,-1.0282,-1.0281,-1.0191,-1.0189,-1.0187,0,0,0,0,0,0,0,0,0,0,0,0,0,-1.0542,-1.054,-1.0442,-1.0441,-1.044,-1.0357,-1.0356,-1.0354,-1.0283,-1.0282,-1.0281,-1.028,-1.0191,-1.0189,-1.0187,0,0,0,0,0,0,0,0,0,0,0,0,0,-1.0481,-1.054,-1.0442,-1.0395,-1.0389,-1.0357,-1.0356,-1.0354,-1.0283,-1.0282,-1.0281,-1.028,-1.0192,-1.019,-1.0187,-1.0194,0,0,-1.0179,-1.0178,0,0,0,0,0,0,0,0,-1.0485,-1.0478,-1.0403,-1.0398,-1.0392,-1.0329,-1.0357,-1.03,-1.0284,-1.0324,-1.0281,-1.0279,-1.0238,-1.0231,-1.0218,-1.019,-1.0186,-1.0179,-1.0178,-1.0176,-1.0176,0,0,0,0,0,0,0,-1.0489,-1.0481,-1.0408,-1.0402,-1.0395,-1.0377,-1.0367,-1.0346,-1.0288,-1.032,-1.0315,-1.0306,-1.0234,-1.022,-1.0215,-1.0185,-1.0179,-1.0177,-1.0175,-1.0174,-1.0159,-1.016,0,0,0,0,0,0,-1.0501,-1.0485,-1.0411,-1.0406,-1.0437,-1.0376,-1.0365,-1.0351,-1.0288,-1.0277,-1.0307,-1.0303,-1.0225,-1.0218,-1.0212,-1.0216,-1.0177,-1.0174,-1.0173,-1.0158,-1.0159,-1.0161,0,0,0,0,0,0,-1.0503,-1.0495,-1.0414,-1.0444,-1.0432,-1.0375,-1.036,-1.035,-1.0335,-1.0278,-1.0267,-1.0303,-1.0224,-1.0215,-1.0199,-1.0212,-1.0173,-1.0171,-1.0157,-1.0158,-1.016,-1.0225,0,0,0,0,0,0,-1.0507,-1.0496,-1.0499,-1.0445,-1.0431,-1.0404,-1.0361,-1.0349,-1.0331,-1.0325,-1.0272,-1.0262,-1.0222,-1.0204,-1.0197,-1.0208,-1.0169,-1.0155,-1.0157,-1.0159,-1.0222,-1.0229,-1.0235,0,0,0,0,0,-1.051,-1.052,-1.05,-1.0491,-1.0433,-1.0405,-1.0397,-1.0353,-1.0333,-1.0335,-1.0298,-1.0263,-1.0212,-1.0203,-1.0194,-1.0205,-1.0154,-1.0157,-1.0159,-1.0219,-1.0228,-1.0235,0,0,0,0,0,0,-1.0577,-1.0512,-1.0489,-1.0481,-1.045,-1.0393,-1.0394,-1.0364,-1.0336,-1.0331,-1.0276,-1.0265,-1.0255,-1.0228,-1.0219,-1.0209,-1.0178,-1.018,-1.0226,-1.0234,-1.0241,-1.0247,-1.0167,0,0,0,0,0,-1.0591,-1.0575,-1.0519,-1.0518,-1.0503,-1.0452,-1.0438,-1.0406,-1.0371,-1.0357,-1.0319,-1.0285,-1.0261,-1.0246,-1.0221,-1.0218,-1.0205,-1.0221,-1.0227,-1.0233,-1.0235,-1.0231,-1.0237,-1.0169,-1.0169,-1.0169,0,0,-1.0619,-1.0582,-1.0575,-1.053,-1.0502,-1.0485,-1.0441,-1.0425,-1.0412,-1.0354,-1.0337,-1.0308,-1.0266,-1.0257,-1.0251,-1.0234,-1.0251,-1.0236,-1.0242,-1.024,-1.0234,-1.0241,-1.0246,-1.017,-1.017,-1.017,0,0,-1.0663,-1.0633,-1.0629,-1.0602,-1.056,-1.0526,-1.0525,-1.0473,-1.0452,-1.0435,-1.0391,-1.0374,-1.0334,-1.0306,-1.0287,-1.0321,-1.0288,-1.0314,-1.0349,-1.0346,-1.0351,-1.0356,-1.0367,-1.0372,-1.0316,-1.0316,-1.0316,0,-1.0703,-1.0677,-1.0631,-1.0618,-1.0599,-1.0547,-1.0542,-1.0517,-1.0469,-1.0457,-1.044,-1.0389,-1.0357,-1.034,-1.0349,-1.0335,-1.0332,-1.032,-1.0354,-1.0358,-1.0362,-1.0372,-1.0377,-1.0319,-1.0319,-1.0318,-1.0318,0,-1.0729,-1.0712,-1.0713,-1.0669,-1.065,-1.0642,-1.0593,-1.058,-1.055,-1.0518,-1.0501,-1.0461,-1.0427,-1.0421,-1.0391,-1.04,-1.0391,-1.0365,-1.0333,-1.0373,-1.0382,-1.0385,-1.0324,-1.0323,-1.0322,-1.0321,0,0,-1.0811,-1.0742,-1.0743,-1.0722,-1.0673,-1.0658,-1.0647,-1.0614,-1.0604,-1.0572,-1.0561,-1.0529,-1.0505,-1.0483,-1.045,-1.0447,-1.0476,-1.0421,-1.0419,-1.0432,-1.0483,-1.0503,-1.0509,-1.0454,-1.0455,-1.0455,-1.0487,0,-1.0846,-1.0824,-1.0782,-1.0773,-1.0756,-1.0706,-1.0696,-1.0664,-1.0634,-1.0615,-1.0581,-1.0559,-1.0528,-1.0515,-1.051,-1.0474,-1.0486,-1.0471,-1.0443,-1.0442,-1.0455,-1.0514,-1.0534,-1.0566,-1.049,-1.0491,-1.0491,0,-1.0884,-1.0856,-1.0846,-1.0798,-1.0789,-1.0781,-1.0748,-1.0731,-1.0693,-1.0671,-1.0648,-1.0611,-1.0596,-1.0568,-1.0546,-1.0537,-1.0523,-1.0504,-1.0504,-1.0499,-1.0469,-1.051,-1.0575,-1.058,-1.0496,-1.0496,-1.0495,0,-1.0945,-1.0905,-1.0894,-1.0878,-1.0821,-1.0816,-1.0792,-1.0754,-1.0737,-1.0708,-1.0697,-1.0666,-1.0649,-1.0626,-1.0583,-1.0566,-1.0566,-1.0534,-1.0546,-1.0548,-1.0548,-1.0549,-1.0611,-1.054,-1.054,-1.054,-1.054,0,-1.0988,-1.0984,-1.092,-1.0913,-1.0907,-1.0858,-1.0853,-1.0824,-1.079,-1.0776,-1.0731,-1.0719,-1.0663,-1.0644,-1.0609,-1.0597,-1.0589,-1.0571,-1.0562,-1.0574,-1.0577,-1.0564,-1.0561,-1.0541,-1.0541,-1.0541,-1.054,0,-1.1055,-1.1012,-1.0997,-1.0945,-1.0931,-1.0929,-1.0884,-1.0875,-1.0842,-1.0825,-1.0818,-1.0767,-1.0742,-1.0697,-1.0659,-1.0636,-1.063,-1.0614,-1.0643,-1.0637,-1.0652,-1.0652,-1.0709,-1.0714,-1.064,-1.0641,-1.0642,0,-1.1085,-1.108,-1.1028,-1.1016,-1.0994,-1.0975,-1.0958,-1.091,-1.0894,-1.0852,-1.0848,-1.082,-1.0795,-1.0758,-1.0717,-1.0687,-1.0671,-1.0693,-1.0666,-1.0679,-1.067,-1.0671,-1.067,-1.0699,-1.07,-1.0701,-1.0701,0,-1.1143,-1.1123,-1.11,-1.1071,-1.1052,-1.1027,-1.0998,-1.0991,-1.0936,-1.0921,-1.0895,-1.0876,-1.0838,-1.0811,-1.0776,-1.075,-1.0717,-1.071,-1.0711,-1.0724,-1.0741,-1.0732,-1.0659,-1.0709,-1.0708,-1.0708,-1.0707,-1.0707,-1.1192,-1.1186,-1.1148,-1.1125,-1.1099,-1.1074,-1.1063,-1.103,-1.1008,-1.0974,-1.0947,-1.0924,-1.0886,-1.0836,-1.0813,-1.0793,-1.0778,-1.078,-1.078,-1.0781,-1.0786,-1.0745,-1.0787,-1.0787,-1.0786,-1.0786,-1.0786,0,-1.1248,-1.1221,-1.12,-1.1163,-1.1145,-1.1116,-1.1083,-1.107,-1.105,-1.1019,-1.0995,-1.0966,-1.094,-1.0897,-1.0867,-1.086,-1.0844,-1.0853,-1.0853,-1.0848,-1.0802,-1.0804,-1.0867,-1.0867,-1.0867,-1.0867,-1.0867,-1.0867,-1.1274,-1.1262,-1.1238,-1.1212,-1.1185,-1.1163,-1.1147,-1.1123,-1.1098,-1.1068,-1.1046,-1.1019,-1.0982,-1.0949,-1.0924,-1.0912,-1.0902,-1.0917,-1.09,-1.0859,-1.0851,-1.0844,-1.0845,-1.0916,-1.0916,-1.0947,-1.0947,-1.0948]},{"header":{"parameterUnit":"m.s-1","parameterCategory":1,"la1":30.2991,"la2":30.254,"lo1":-89.0895,"lo2":-89.0444,"dy":0.0017,"dx":0.0017,"nx":28,"ny":28,"refTime":"2025-08-04T21:00:00:Z","depth":0,"parameterNumber":3,"parameterNumberName":"V-component_of_WINDS"},"data":[0,0,0,0,0,0,0,0,0,0,0,0,0,0,0,0,0,0,0,0,0,0,0,0,0,0,0,0,0,0,0,0,0,0,0,0,0,0,0,0,0,0,0,0,0,0,0,0,0,0,0,0,0,0,0,0,0,0,1.0557,1.0557,0,1.0526,1.0526,1.0526,1.0555,1.0557,1.0558,1.0559,1.0524,1.0522,1.052,0,0,0,0,0,0,0,0,0,0,0,0,0,1.064,1.0638,1.0558,1.0557,1.0557,1.0526,1.0526,1.0525,1.0555,1.0557,1.0558,1.056,1.0524,1.0522,1.0519,0,0,0,0,0,0,0,0,0,0,0,0,0,1.0606,1.0637,1.0558,1.0568,1.0569,1.0526,1.0526,1.0525,1.0555,1.0557,1.0559,1.056,1.0525,1.0522,1.0519,1.0464,0,0,1.051,1.0508,0,0,0,0,0,0,0,0,1.0608,1.0603,1.0567,1.0567,1.0568,1.0547,1.0542,1.0505,1.0555,1.056,1.0559,1.0561,1.053,1.0526,1.0516,1.0462,1.0461,1.0509,1.0507,1.0506,1.0505,0,0,0,0,0,0,0,1.061,1.0604,1.0545,1.0566,1.0567,1.0573,1.057,1.0535,1.0535,1.056,1.0562,1.0558,1.053,1.0519,1.0516,1.046,1.0509,1.0507,1.0505,1.0504,1.0358,1.0356,0,0,0,0,0,0,1.0612,1.0606,1.0546,1.0544,1.0593,1.057,1.0567,1.0552,1.0535,1.0535,1.0556,1.0559,1.0524,1.0519,1.0515,1.0447,1.0506,1.0503,1.0501,1.036,1.0357,1.0355,0,0,0,0,0,0,1.0613,1.0606,1.0547,1.0576,1.0569,1.0567,1.0549,1.055,1.0539,1.0533,1.0533,1.0545,1.0525,1.0519,1.0476,1.0447,1.0502,1.0499,1.0362,1.0359,1.0356,1.0314,0,0,0,0,0,0,1.0615,1.0606,1.0586,1.0575,1.0567,1.051,1.0548,1.0548,1.0534,1.0538,1.0523,1.0522,1.0526,1.0481,1.0473,1.0443,1.0497,1.0365,1.0361,1.0357,1.0317,1.0309,1.0303,0,0,0,0,0,1.0618,1.0575,1.0585,1.0577,1.0542,1.0508,1.0504,1.051,1.0532,1.051,1.0507,1.0522,1.0452,1.0476,1.0468,1.0437,1.0367,1.0362,1.0358,1.0321,1.0311,1.0303,0,0,0,0,0,0,1.0581,1.0574,1.0585,1.0537,1.0523,1.0514,1.0487,1.05,1.0479,1.0483,1.0491,1.0488,1.0442,1.0436,1.0463,1.0382,1.0412,1.0406,1.0387,1.0378,1.0371,1.0372,1.0494,0,0,0,0,0,1.0568,1.0543,1.0537,1.0495,1.0488,1.0489,1.0474,1.0481,1.0467,1.0461,1.0454,1.0438,1.0413,1.0395,1.0372,1.0318,1.0314,1.0292,1.0285,1.0279,1.0272,1.0241,1.0231,1.034,1.034,1.034,0,0,1.0539,1.0532,1.0515,1.0487,1.0478,1.045,1.0483,1.0453,1.0432,1.0456,1.0414,1.0409,1.0392,1.0343,1.0321,1.0336,1.0242,1.0273,1.0268,1.0265,1.0236,1.0225,1.0216,1.0337,1.0338,1.0338,0,0,1.0472,1.0465,1.0428,1.0418,1.0404,1.0405,1.0396,1.0385,1.0382,1.0341,1.0358,1.0333,1.0289,1.0276,1.0264,1.0193,1.0205,1.0185,1.0144,1.0115,1.0106,1.0098,1.0071,1.0061,1.0179,1.0179,1.0179,0,1.0438,1.0398,1.0408,1.0376,1.0362,1.0384,1.0346,1.0336,1.0313,1.0303,1.0321,1.0266,1.0256,1.0204,1.0186,1.0177,1.0165,1.0185,1.0107,1.0099,1.0092,1.0066,1.0056,1.0176,1.0177,1.0177,1.0177,0,1.0355,1.0327,1.0299,1.0278,1.0262,1.0227,1.0231,1.0213,1.0221,1.022,1.0177,1.0167,1.0141,1.013,1.0137,1.0078,1.0087,1.0106,1.0136,1.0079,1.0054,1.0044,1.0172,1.0173,1.0174,1.0175,0,0,1.0262,1.0248,1.0237,1.0227,1.0213,1.0191,1.0157,1.0132,1.0116,1.01,1.007,1.0033,1.005,1.0036,1.0042,1.0016,0.9958,1.0038,1.0038,1.0021,0.989,0.9874,0.9863,0.9968,0.9966,0.9964,0.9891,0,1.0193,1.0134,1.0143,1.0086,1.0059,1.008,1.005,1.0037,1.0036,1.0012,1.001,0.9982,1.0008,0.9999,0.9975,0.997,0.9931,0.9976,0.9938,0.9937,0.9939,0.985,0.9834,0.9765,0.9881,0.988,0.9879,0,1.0104,1.0086,1.0026,1.0016,1.0005,0.9978,0.9955,0.9933,0.9919,0.9919,0.9904,0.9915,0.9879,0.9913,0.9863,0.9893,0.9878,0.9874,0.9871,0.9866,0.9902,0.984,0.9743,0.9731,0.9864,0.9865,0.9866,0,1.0039,1.0,0.9959,0.995,0.9937,0.9918,0.9911,0.9899,0.9883,0.9864,0.9854,0.983,0.9817,0.9798,0.9801,0.9825,0.975,0.9784,0.9747,0.9747,0.9728,0.9729,0.9625,0.9723,0.9723,0.9723,0.9723,0,0.9959,0.9922,0.993,0.9904,0.9862,0.9872,0.983,0.9826,0.9815,0.9788,0.9805,0.9779,0.9787,0.9761,0.9764,0.9722,0.9716,0.9714,0.9715,0.9711,0.9711,0.9699,0.9703,0.9721,0.9721,0.9722,0.9722,0,0.9879,0.9883,0.9839,0.9831,0.9828,0.9797,0.979,0.9765,0.9766,0.9731,0.9724,0.9723,0.9694,0.9697,0.9663,0.9665,0.9612,0.9619,0.9616,0.9617,0.958,0.9582,0.9463,0.9447,0.9557,0.9556,0.9556,0,0.9827,0.9798,0.9787,0.9771,0.9763,0.9737,0.9721,0.973,0.9713,0.9695,0.9672,0.9645,0.9623,0.9575,0.9571,0.9545,0.9551,0.9511,0.9547,0.9544,0.9547,0.9548,0.9544,0.9503,0.9501,0.95,0.9499,0,0.9733,0.9736,0.9714,0.9692,0.9673,0.9656,0.964,0.9626,0.9633,0.9613,0.9584,0.9567,0.9533,0.9505,0.9481,0.9473,0.9486,0.9489,0.9478,0.9473,0.9472,0.947,0.9594,0.9491,0.9491,0.9492,0.9493,0.9493,0.9663,0.9638,0.9626,0.9601,0.959,0.9575,0.9552,0.9549,0.9525,0.9499,0.9506,0.9472,0.9458,0.9427,0.9417,0.939,0.9405,0.939,0.9386,0.9382,0.9377,0.9478,0.9386,0.9387,0.9387,0.9387,0.9387,0,0.9568,0.9562,0.9538,0.9516,0.9495,0.9512,0.9496,0.9477,0.9448,0.9434,0.9413,0.9378,0.9351,0.9345,0.9319,0.9298,0.9304,0.9291,0.9291,0.9289,0.9366,0.9377,0.9287,0.9287,0.9287,0.9287,0.9287,0.9287,0.9516,0.9474,0.9476,0.9429,0.9423,0.9391,0.938,0.9366,0.9355,0.9316,0.9294,0.9291,0.928,0.9254,0.9229,0.9228,0.9216,0.92,0.9201,0.9273,0.9283,0.9293,0.9303,0.9198,0.9198,0.9126,0.9125,0.9124]}]]